Garrett, IN

5:02 PM EST on February 23, 2017 (GMT -0500)
Auburn

Weather History for KGWB - October, 2012

Change the Weather History Date:

Friday, October 26, 2012

  Actual Average (KFWA) Record (KFWA)
Temperature  
Mean Temperature 54 °F -  
Max Temperature 68 °F 58 °F 84 °F (1963)
Min Temperature 41 °F 39 °F 21 °F (1942)
Degree Days  
Heating Degree Days 10    
Growing Degree Days 4 (Base 50)    
Moisture  
Dew Point 37 °F    
Average Humidity 69    
Maximum Humidity 93    
Minimum Humidity 50    
Precipitation  
Precipitation 0.04 in - - ()
Sea Level Pressure  
Sea Level Pressure 30.15 in    
Wind  
Wind Speed 11 mph (NNW)    
Max Wind Speed 18 mph    
Max Gust Speed 31 mph    
Visibility 10 miles    
Events Rain    
Averages and records for this station are not official NWS values.
T = Trace of Precipitation, MM = Missing Value Source: NWS Daily Summary

Daily Weather History Graph

Daily Weather History Graph

Search for Another Location

Airport or City:

Trip Planner

Search our weather history database for the weather conditions in past years. The results will help you decide how hot, cold, wet, or windy it might be!

Date:

Astronomy

Oct. 26, 2012 Rise Set
Actual Time 8:05 AM EDT 6:42 PM EDT
Civil Twilight 7:36 AM EDT 7:10 PM EDT
Nautical Twilight 7:04 AM EDT 7:43 PM EDT
Astronomical Twilight 6:32 AM EDT 8:15 PM EDT
Moon 4:59 PM EDT (10/26) 4:59 AM EDT (10/26)
Length of Visible Light 11h 34m
Length of Day
10h 37m
Waxing Gibbous, 91% of the Moon is Illuminated
Oct 26
Waxing Gibbous
Oct 29
Full
Nov 6
Last Quarter
Nov 13
New
Nov 20
First Quarter

Hourly Weather History & Observations

Time (EDT) Temp. Windchill Dew Point Humidity Pressure Visibility Wind Dir Wind Speed Gust Speed Precip Events Conditions
12:15 AM 68.0 °F - 51.8 °F 56% 29.87 in 10.0 mi South 12.7 mph 19.6 mph N/A   Overcast
12:35 AM 68.0 °F - 51.8 °F 56% 29.88 in 10.0 mi SSW 8.1 mph 20.7 mph N/A   Mostly Cloudy
12:55 AM 68.0 °F - 51.8 °F 56% 29.90 in 10.0 mi SW 8.1 mph - N/A   Overcast
1:35 AM 60.8 °F - 53.6 °F 77% 29.93 in 10.0 mi WNW 16.1 mph 21.9 mph N/A   Overcast
1:55 AM 55.4 °F - 50.0 °F 82% 29.96 in 10.0 mi NW 18.4 mph 23.0 mph N/A   Overcast
2:15 AM 53.6 °F - 46.4 °F 77% 29.97 in 10.0 mi WNW 13.8 mph 23.0 mph N/A   Overcast
2:35 AM 53.6 °F - 48.2 °F 82% 29.98 in 10.0 mi WNW 12.7 mph 23.0 mph N/A   Overcast
2:55 AM 51.8 °F - 46.4 °F 82% 30.00 in 10.0 mi NW 16.1 mph 21.9 mph N/A   Overcast
3:15 AM 50.0 °F - 44.6 °F 82% 30.02 in 5.0 mi NW 17.3 mph 31.1 mph N/A Rain Rain
3:35 AM 48.2 °F - 44.6 °F 87% 30.02 in 7.0 mi NW 13.8 mph 20.7 mph N/A   Light Drizzle
3:55 AM 48.2 °F - 42.8 °F 82% 30.04 in 10.0 mi WNW 15.0 mph 20.7 mph N/A   Overcast
4:35 AM 46.4 °F 40.7 °F 44.6 °F 93% 30.06 in 4.0 mi NW 12.7 mph - N/A   Drizzle
4:55 AM 46.4 °F 40.7 °F 42.8 °F 87% 30.06 in 4.0 mi WNW 12.7 mph 17.3 mph 0.01 in   Heavy Drizzle
5:15 AM 46.4 °F 42.4 °F 42.8 °F 87% 30.07 in 4.0 mi NW 8.1 mph 18.4 mph N/A Rain Heavy Rain
5:35 AM 46.4 °F 41.9 °F 42.8 °F 87% 30.07 in 10.0 mi NW 9.2 mph - 0.02 in Rain Light Rain
5:55 AM 44.6 °F 39.7 °F 42.8 °F 93% 30.08 in 10.0 mi NNW 9.2 mph - 0.03 in Rain Rain
6:35 AM 44.6 °F 38.4 °F 41.0 °F 87% 30.10 in 10.0 mi NNW 12.7 mph 21.9 mph N/A   Overcast
6:55 AM 44.6 °F 39.2 °F 41.0 °F 87% 30.12 in 10.0 mi NW 10.4 mph 18.4 mph N/A   Light Drizzle
7:15 AM 44.6 °F 37.8 °F 41.0 °F 87% 30.15 in 10.0 mi WNW 15.0 mph 21.9 mph N/A   Overcast
7:35 AM 44.6 °F 39.2 °F 39.2 °F 81% 30.16 in 10.0 mi NW 10.4 mph 18.4 mph N/A   Overcast
7:55 AM 44.6 °F 38.4 °F 39.2 °F 81% 30.16 in 10.0 mi NW 12.7 mph 19.6 mph N/A   Overcast
8:15 AM 44.6 °F 38.1 °F 37.4 °F 76% 30.13 in 10.0 mi NNW 13.8 mph 17.3 mph N/A Rain Light Rain
8:35 AM 42.8 °F 37.0 °F 37.4 °F 81% 30.13 in 10.0 mi North 10.4 mph 16.1 mph N/A Rain Light Rain
8:55 AM 42.8 °F 36.6 °F 37.4 °F 81% 30.15 in 10.0 mi NNW 11.5 mph - N/A Rain Light Rain
9:15 AM 42.8 °F 38.0 °F 37.4 °F 81% 30.19 in 10.0 mi NNW 8.1 mph - N/A   Overcast
9:35 AM 44.6 °F 41.4 °F 37.4 °F 76% 30.20 in 10.0 mi NNW 5.8 mph - N/A   Overcast
9:55 AM 44.6 °F 39.7 °F 37.4 °F 76% 30.21 in 10.0 mi NNW 9.2 mph - N/A   Overcast
10:15 AM 44.6 °F 40.2 °F 37.4 °F 76% 30.21 in 10.0 mi North 8.1 mph - N/A   Overcast
10:35 AM 44.6 °F 39.2 °F 35.6 °F 71% 30.22 in 10.0 mi NW 10.4 mph - N/A   Overcast
11:15 AM 44.6 °F 40.2 °F 35.6 °F 71% 30.23 in 10.0 mi NNW 8.1 mph - N/A   Overcast
11:35 AM 46.4 °F 41.5 °F 35.6 °F 66% 30.23 in 10.0 mi NNW 10.4 mph - N/A   Overcast
11:55 AM 46.4 °F 41.5 °F 35.6 °F 66% 30.24 in 10.0 mi North 10.4 mph - N/A   Overcast
12:15 PM 46.4 °F 41.9 °F 35.6 °F 66% 30.23 in 10.0 mi NNW 9.2 mph - N/A   Overcast
12:35 PM 46.4 °F 41.9 °F 35.6 °F 66% 30.23 in 10.0 mi NNW 9.2 mph - N/A   Overcast
12:55 PM 46.4 °F 41.5 °F 35.6 °F 66% 30.24 in 10.0 mi NNW 10.4 mph - N/A   Mostly Cloudy
1:15 PM 46.4 °F 41.5 °F 33.8 °F 62% 30.24 in 10.0 mi NNW 10.4 mph 17.3 mph N/A   Scattered Clouds
1:35 PM 46.4 °F 41.5 °F 33.8 °F 62% 30.24 in 10.0 mi NNW 10.4 mph 16.1 mph N/A   Scattered Clouds
1:55 PM 46.4 °F 41.5 °F 33.8 °F 62% 30.23 in 10.0 mi North 10.4 mph - N/A   Scattered Clouds
2:15 PM 48.2 °F - 33.8 °F 58% 30.22 in 10.0 mi North 10.4 mph - N/A   Clear
2:35 PM 48.2 °F - 33.8 °F 58% 30.22 in 10.0 mi NNW 9.2 mph - N/A   Clear
2:55 PM 48.2 °F - 33.8 °F 58% 30.23 in 10.0 mi North 5.8 mph 9.2 mph N/A   Clear
3:15 PM 48.2 °F - 32.0 °F 54% 30.23 in 10.0 mi North 6.9 mph - N/A   Clear
3:35 PM 50.0 °F - 33.8 °F 54% 30.22 in 10.0 mi North 10.4 mph - N/A   Clear
3:55 PM 50.0 °F - 33.8 °F 54% 30.20 in 10.0 mi North 8.1 mph - N/A   Clear
4:15 PM 50.0 °F - 32.0 °F 50% 30.20 in 10.0 mi NNW 10.4 mph - N/A   Clear
4:35 PM 50.0 °F - 32.0 °F 50% 30.20 in 10.0 mi North 9.2 mph - N/A   Clear
4:55 PM 50.0 °F - 32.0 °F 50% 30.20 in 10.0 mi NNW 10.4 mph - N/A   Clear
5:15 PM 50.0 °F - 32.0 °F 50% 30.19 in 10.0 mi NNW 11.5 mph 16.1 mph N/A   Clear
5:35 PM 48.2 °F - 32.0 °F 54% 30.19 in 10.0 mi NNW 10.4 mph - N/A   Clear
6:15 PM 46.4 °F 42.4 °F 32.0 °F 57% 30.20 in 10.0 mi NNW 8.1 mph - N/A   Clear
6:35 PM 46.4 °F 41.5 °F 32.0 °F 57% 30.21 in 10.0 mi NNW 10.4 mph - N/A   Clear
6:55 PM 46.4 °F 42.9 °F 32.0 °F 57% 30.21 in 10.0 mi NNW 6.9 mph - N/A   Clear
7:15 PM 46.4 °F 42.4 °F 32.0 °F 57% 30.22 in 10.0 mi North 8.1 mph - N/A   Clear
7:35 PM 46.4 °F 42.4 °F 32.0 °F 57% 30.21 in 10.0 mi North 8.1 mph - N/A   Clear
7:55 PM 44.6 °F 40.2 °F 32.0 °F 61% 30.21 in 10.0 mi North 8.1 mph - N/A   Clear
8:15 PM 44.6 °F 40.7 °F 32.0 °F 61% 30.22 in 10.0 mi North 6.9 mph - N/A   Clear
8:35 PM 44.6 °F 40.7 °F 32.0 °F 61% 30.22 in 10.0 mi North 6.9 mph - N/A   Clear
8:55 PM 42.8 °F 38.6 °F 32.0 °F 66% 30.22 in 10.0 mi NNW 6.9 mph - N/A   Clear
9:15 PM 42.8 °F 38.6 °F 32.0 °F 66% 30.23 in 10.0 mi NNW 6.9 mph - N/A   Clear
9:35 PM 42.8 °F 38.6 °F 32.0 °F 66% 30.22 in 10.0 mi NNW 6.9 mph - N/A   Clear
9:55 PM 41.0 °F 36.4 °F 32.0 °F 70% 30.22 in 10.0 mi NNW 6.9 mph - N/A   Clear
10:15 PM 41.0 °F 37.1 °F 32.0 °F 70% 30.23 in 10.0 mi North 5.8 mph - N/A   Clear
10:35 PM 41.0 °F 38.0 °F 32.0 °F 70% 30.23 in 10.0 mi North 4.6 mph - N/A   Clear
10:55 PM 42.8 °F 40.1 °F 32.0 °F 66% 30.23 in 10.0 mi North 4.6 mph - N/A   Clear
11:35 PM 42.8 °F 39.3 °F 32.0 °F 66% 30.23 in 10.0 mi North 5.8 mph - N/A   Clear
11:55 PM 42.8 °F 39.3 °F 32.0 °F 66% 30.23 in 10.0 mi NNW 5.8 mph - N/A   Clear